TRA38B LEBL-EHAM

Flight info

Callsign TRA38B
Flight time N/A
Altitude 30000
Route OLOXO DCT OKABI/N0445F360 DCT TOU DCT ADABI DCT BOKNO UN858 VANAD UN874 BAMES UT191 PODEM UN873 BAZOS DCT LUMIL DCT BELOB UY873 DENUT
Aircraft B738/M-SDE2E3FGHIRWXY/LB1

Departure

Time N/A
Airport Josep Tarradellas Barcelona-El Prat Airport (LEBL)

Arrival

Time 2026-05-06 20:27
Airport Amsterdam Airport Schiphol (EHAM)
Time Latitude Longitude Altitude Speed Heading
2026-05-06 19:39 48.85991 1.42723 35996 ft 441 kts 17°
2026-05-06 19:39 48.91832 1.45702 35988 ft 444 kts 17°
2026-05-06 19:40 48.97663 1.48623 35985 ft 444 kts 14°
2026-05-06 19:40 49.03725 1.50224 35984 ft 442 kts
2026-05-06 19:41 49.09803 1.51500 35982 ft 440 kts
2026-05-06 19:41 49.15850 1.52882 35979 ft 438 kts
2026-05-06 19:42 49.21817 1.54297 35979 ft 436 kts
2026-05-06 19:42 49.24741 1.55546 35974 ft 437 kts 21°
2026-05-06 19:42 49.27445 1.57654 35985 ft 437 kts 31°
2026-05-06 19:43 49.32065 1.63717 35984 ft 438 kts 43°
2026-05-06 19:43 49.36420 1.70265 35978 ft 438 kts 43°
2026-05-06 19:44 49.40808 1.76773 35976 ft 439 kts 42°
2026-05-06 19:44 49.45198 1.83220 35976 ft 440 kts 42°
2026-05-06 19:45 49.49627 1.89732 35973 ft 441 kts 42°
2026-05-06 19:45 49.54267 1.95914 35975 ft 441 kts 35°
2026-05-06 19:46 49.59252 2.01458 35972 ft 442 kts 34°
2026-05-06 19:46 49.64230 2.06944 35971 ft 443 kts 34°
2026-05-06 19:47 49.69219 2.12546 35973 ft 444 kts 34°
2026-05-06 19:47 49.74198 2.18204 35975 ft 444 kts 35°
2026-05-06 19:48 49.79172 2.23884 35970 ft 444 kts 35°
2026-05-06 19:48 49.84110 2.29537 35971 ft 444 kts 36°
2026-05-06 19:49 49.89077 2.35235 35971 ft 444 kts 36°
2026-05-06 19:49 49.94033 2.40937 35966 ft 443 kts 36°
2026-05-06 19:50 49.98984 2.46647 35967 ft 443 kts 36°
2026-05-06 19:50 50.03934 2.52370 35965 ft 443 kts 36°
2026-05-06 19:51 50.08846 2.58065 35966 ft 443 kts 36°
2026-05-06 19:51 50.13787 2.63808 35963 ft 443 kts 36°
2026-05-06 19:52 50.18723 2.69561 35964 ft 443 kts 36°
2026-05-06 19:52 50.23658 2.75327 35963 ft 443 kts 36°
2026-05-06 19:53 50.28550 2.81059 35704 ft 440 kts 36°
2026-05-06 19:53 50.31057 2.83745 35448 ft 433 kts 31°
2026-05-06 19:53 50.33617 2.86184 35220 ft 427 kts 29°
2026-05-06 19:54 50.36163 2.88508 34976 ft 422 kts 29°
2026-05-06 19:54 50.38695 2.90810 34732 ft 419 kts 29°
2026-05-06 19:54 50.41199 2.93112 34501 ft 416 kts 29°
2026-05-06 19:54 50.43676 2.95422 34263 ft 413 kts 30°
2026-05-06 19:55 50.46101 2.97704 34030 ft 410 kts 30°
2026-05-06 19:55 50.48533 3.00010 33759 ft 408 kts 30°
2026-05-06 19:55 50.50951 3.02310 33487 ft 406 kts 30°
2026-05-06 19:55 50.53354 3.04600 33193 ft 401 kts 30°
2026-05-06 19:56 50.55725 3.06863 32869 ft 395 kts 30°
2026-05-06 19:56 50.58060 3.09093 32501 ft 390 kts 30°
2026-05-06 19:56 50.60365 3.11295 32160 ft 387 kts 30°
2026-05-06 19:56 50.62690 3.13519 31793 ft 396 kts 30°
2026-05-06 19:57 50.65060 3.15789 31425 ft 398 kts 30°
2026-05-06 19:57 50.67411 3.18045 31048 ft 394 kts 30°
2026-05-06 19:57 50.69707 3.20250 30690 ft 390 kts 30°
2026-05-06 19:57 50.72028 3.22420 30350 ft 386 kts 28°
2026-05-06 19:58 50.74370 3.24426 30012 ft 382 kts 27°
2026-05-06 19:58 50.76711 3.26355 29611 ft 378 kts 26°
2026-05-06 19:58 50.79044 3.28262 29255 ft 377 kts 26°
2026-05-06 19:58 50.81386 3.30184 28895 ft 381 kts 27°
2026-05-06 19:59 50.83728 3.32119 28516 ft 379 kts 27°
2026-05-06 19:59 50.86045 3.34047 28157 ft 374 kts 27°
2026-05-06 19:59 50.88334 3.35961 27785 ft 371 kts 27°
2026-05-06 19:59 50.90606 3.37865 27433 ft 367 kts 27°
2026-05-06 20:00 50.92858 3.39756 27069 ft 367 kts 27°
2026-05-06 20:00 50.95131 3.41667 26719 ft 372 kts 27°
2026-05-06 20:00 50.97408 3.43585 26369 ft 370 kts 27°
2026-05-06 20:00 50.99641 3.45467 25997 ft 366 kts 27°
2026-05-06 20:01 51.01883 3.47360 25645 ft 363 kts 27°
2026-05-06 20:01 51.04097 3.49232 25309 ft 359 kts 27°
2026-05-06 20:01 51.06297 3.51092 24949 ft 357 kts 26°
2026-05-06 20:01 51.08489 3.52948 24607 ft 356 kts 26°
2026-05-06 20:02 51.10674 3.54801 24267 ft 354 kts 26°
2026-05-06 20:02 51.12841 3.56639 23925 ft 353 kts 26°
2026-05-06 20:02 51.15014 3.58485 23583 ft 353 kts 26°
2026-05-06 20:02 51.17184 3.60330 23184 ft 353 kts 26°
2026-05-06 20:03 51.19341 3.62166 22796 ft 351 kts 26°
2026-05-06 20:03 51.21462 3.63973 22441 ft 349 kts 26°
2026-05-06 20:03 51.23666 3.65538 22073 ft 344 kts 12°
2026-05-06 20:03 51.26036 3.65868 22015 ft 346 kts 358°
2026-05-06 20:04 51.28423 3.65814 21958 ft 338 kts 356°
2026-05-06 20:04 51.30731 3.65706 21940 ft 325 kts 356°
2026-05-06 20:04 51.32945 3.65598 21933 ft 312 kts 356°
2026-05-06 20:04 51.35082 3.65502 21865 ft 302 kts 356°
2026-05-06 20:05 51.37162 3.65416 21616 ft 298 kts 356°
2026-05-06 20:05 51.39241 3.65336 21219 ft 300 kts 356°
2026-05-06 20:05 51.41370 3.65257 20335 ft 317 kts 356°
2026-05-06 20:05 51.43635 3.65176 19572 ft 330 kts 357°
2026-05-06 20:06 51.45936 3.65101 19154 ft 330 kts 357°
2026-05-06 20:06 51.48194 3.65030 18855 ft 326 kts 357°
2026-05-06 20:06 51.50449 3.64960 18535 ft 323 kts 357°
2026-05-06 20:06 51.52685 3.64891 18225 ft 320 kts 356°
2026-05-06 20:07 51.54912 3.64821 17781 ft 320 kts 356°
2026-05-06 20:07 51.57130 3.64751 17382 ft 318 kts 357°
2026-05-06 20:07 51.59337 3.64681 17017 ft 315 kts 356°
2026-05-06 20:07 51.61521 3.64612 16648 ft 313 kts 357°
2026-05-06 20:08 51.63666 3.64544 16261 ft 311 kts 356°
2026-05-06 20:08 51.65822 3.64477 15913 ft 309 kts 356°
2026-05-06 20:08 51.67964 3.64409 15580 ft 306 kts 356°
2026-05-06 20:08 51.70088 3.64440 15193 ft 307 kts
2026-05-06 20:09 51.72072 3.65642 14813 ft 310 kts 32°
2026-05-06 20:09 51.73625 3.68055 14510 ft 310 kts 52°
2026-05-06 20:09 51.74818 3.70938 14171 ft 308 kts 56°
2026-05-06 20:09 51.75954 3.73869 13789 ft 309 kts 56°
2026-05-06 20:10 51.77082 3.76815 13432 ft 306 kts 56°
2026-05-06 20:10 51.78182 3.79676 13116 ft 302 kts 57°
2026-05-06 20:10 51.79297 3.82554 12697 ft 302 kts 56°
2026-05-06 20:10 51.80411 3.85416 12382 ft 299 kts 56°
2026-05-06 20:11 51.81514 3.88243 12037 ft 297 kts 55°
2026-05-06 20:11 51.82612 3.91050 11724 ft 294 kts 56°
2026-05-06 20:11 51.83697 3.93824 11526 ft 287 kts 56°
2026-05-06 20:11 51.84742 3.96500 11458 ft 276 kts 56°
2026-05-06 20:12 51.85749 3.99076 11381 ft 266 kts 56°
2026-05-06 20:12 51.86720 4.01562 11247 ft 258 kts 56°
2026-05-06 20:12 51.87664 4.03978 10998 ft 257 kts 56°
2026-05-06 20:12 51.88628 4.06450 10734 ft 256 kts 56°
2026-05-06 20:13 51.89561 4.08846 10472 ft 254 kts 56°
2026-05-06 20:13 51.90502 4.11262 10216 ft 252 kts 56°
2026-05-06 20:13 51.91496 4.13623 9662 ft 256 kts 46°
2026-05-06 20:13 51.92833 4.15537 9172 ft 257 kts 37°
2026-05-06 20:14 51.94236 4.17334 8692 ft 257 kts 37°
2026-05-06 20:14 51.95645 4.19139 8234 ft 258 kts 38°
2026-05-06 20:14 51.97051 4.20956 7778 ft 259 kts 38°
2026-05-06 20:14 51.98460 4.22790 7325 ft 260 kts 38°
2026-05-06 20:15 51.99862 4.24626 6877 ft 259 kts 38°
2026-05-06 20:15 52.01266 4.26472 6444 ft 259 kts 38°
2026-05-06 20:15 52.02639 4.28284 5971 ft 259 kts 38°
2026-05-06 20:15 52.04035 4.30130 5483 ft 258 kts 38°
2026-05-06 20:16 52.05419 4.31965 5030 ft 257 kts 38°
2026-05-06 20:16 52.06806 4.33804 4606 ft 255 kts 38°
2026-05-06 20:16 52.08159 4.35602 4270 ft 248 kts 38°
2026-05-06 20:16 52.09480 4.37359 3924 ft 243 kts 39°
2026-05-06 20:17 52.10770 4.39075 3589 ft 237 kts 39°
2026-05-06 20:17 52.12133 4.40519 3235 ft 233 kts 20°
2026-05-06 20:17 52.13707 4.40692 2899 ft 233 kts 349°
2026-05-06 20:17 52.15138 4.39429 2554 ft 236 kts 317°
2026-05-06 20:18 52.16147 4.37385 2303 ft 231 kts 312°
2026-05-06 20:18 52.17181 4.35459 2161 ft 222 kts 324°
2026-05-06 20:18 52.18458 4.34124 2053 ft 218 kts 333°
2026-05-06 20:18 52.19760 4.32821 2015 ft 220 kts 332°
2026-05-06 20:19 52.21066 4.31499 2012 ft 223 kts 333°
2026-05-06 20:19 52.22412 4.30245 1997 ft 221 kts 345°
2026-05-06 20:19 52.23882 4.30122 2002 ft 209 kts 19°
2026-05-06 20:19 52.25053 4.31355 2007 ft 207 kts 52°
2026-05-06 20:20 52.25568 4.33535 2001 ft 212 kts 85°
2026-05-06 20:20 52.25235 4.35895 2011 ft 219 kts 109°
2026-05-06 20:20 52.24576 4.38153 1996 ft 221 kts 111°
2026-05-06 20:20 52.23900 4.40403 1979 ft 218 kts 112°
2026-05-06 20:21 52.23244 4.42526 1984 ft 200 kts 112°
2026-05-06 20:21 52.22640 4.44433 1986 ft 180 kts 112°
2026-05-06 20:21 52.22069 4.46217 1993 ft 174 kts 112°
2026-05-06 20:21 52.21499 4.47954 2014 ft 174 kts 112°
2026-05-06 20:22 52.20928 4.49710 2004 ft 177 kts 112°
2026-05-06 20:22 52.20620 4.51590 1978 ft 170 kts 77°
2026-05-06 20:22 52.21122 4.53236 1999 ft 165 kts 57°
2026-05-06 20:22 52.21711 4.54845 1996 ft 166 kts 57°
2026-05-06 20:23 52.22310 4.56447 1996 ft 165 kts 57°
2026-05-06 20:23 52.22915 4.58042 1996 ft 166 kts 57°
2026-05-06 20:23 52.23528 4.59647 1979 ft 168 kts 57°
2026-05-06 20:23 52.24126 4.61214 1788 ft 154 kts 57°
2026-05-06 20:24 52.24655 4.62601 1614 ft 138 kts 57°
2026-05-06 20:24 52.25173 4.63955 1435 ft 144 kts 57°
2026-05-06 20:24 52.25706 4.65349 1214 ft 144 kts 56°
2026-05-06 20:24 52.26219 4.66689 1013 ft 134 kts 56°
2026-05-06 20:25 52.26702 4.67954 831 ft 130 kts 55°
2026-05-06 20:25 52.27151 4.69198 670 ft 128 kts 54°
2026-05-06 20:25 52.27623 4.70429 508 ft 129 kts 54°
2026-05-06 20:25 52.28123 4.71707 308 ft 136 kts 55°
2026-05-06 20:26 52.28638 4.73025 126 ft 141 kts 56°
2026-05-06 20:26 52.29155 4.74366 13 ft 134 kts 55°
2026-05-06 20:26 52.29598 4.75515 -3 ft 101 kts 56°
2026-05-06 20:26 52.29899 4.76295 -5 ft 58 kts 57°
2026-05-06 20:27 52.30046 4.76553 -3 ft 25 kts 29°
2026-05-06 20:27 52.30168 4.76660 -2 ft 14 kts 30°
2026-05-06 20:27 52.30225 4.76710 -2 ft 9 kts 28°
2026-05-06 20:27 52.30280 4.76743 -2 ft 9 kts
2026-05-06 20:28 52.30333 4.76709 -2 ft 8 kts 311°
2026-05-06 20:28 52.30354 4.76622 -2 ft 8 kts 292°
2026-05-06 20:28 52.30394 4.76553 -2 ft 9 kts 326°
2026-05-06 20:28 52.30438 4.76508 -2 ft 7 kts 327°
2026-05-06 20:29 52.30471 4.76482 -2 ft 3 kts 11°
2026-05-06 20:29 52.30487 4.76505 -2 ft 3 kts 46°
2026-05-06 20:29 52.30499 4.76533 -2 ft 0 kts 58°
2026-05-06 20:29 52.30501 4.76537 -2 ft 1 kts 58°
2026-05-06 20:30 52.30504 4.76545 -2 ft 0 kts 58°
2026-05-06 20:30 52.30506 4.76551 -2 ft 0 kts 58°